Tracking 20753 objects as of 7-Jun-2020
HD Live streaming from Space Station
objects crossing your sky now
Track the most recent launched group of Starlink satellites

HOT BIRD 1

Track HOT BIRD 1 now!
HOT BIRD 1 is classified as:


NORAD ID: 23537
Int'l Code: 1995-016B
Perigee: 36,031.0 km
Apogee: 36,097.6 km
Inclination: 10.4 °
Period: 1,449.9 minutes
Semi major axis: 42435 km
RCS: 7.9621 m2 (large)
Launch date: March 28, 1995
Source: European Telecommunications Satellite Organization (EUTE)
Launch site: FRENCH GUIANA (FRGUI)

Cable programming; direct-to-home broadcasting; 16 channels, Western Europe
aabbcc
Your satellite tracking list
Your tracking list is empty




NASA's NSSDC Master Catalog

Two Line Element Set (TLE):
1 23537U 95016B   20157.58888931 -.00000206  00000-0  00000+0 0  9994
2 23537  10.3917  37.1905 0007852  20.2414 157.1431  0.99314438 91848
Source of the keplerian elements: AFSPC